Flag for Estonia Weather past 2 weeks in Tartu, Estonia

Now
54 °F

Passing clouds.


Feels Like: 50 °F
Forecast: 42 / 64 °F
Wind: 10 mph from West

Location: Tartu/Ulenurme

Current Time: May 28, 2015 at 9:57:28 AM

Latest Report: May 28, 2015 at 8:50 AM


Visibility: N/A

Pressure: 29.77 "Hg

Humidity: 72%

Dew point: 45 °F

Location of TartuLocation

Historic Weather in Tartu — Graph

°F

Tartu temperature yesterday

Maximum temperature yesterday: 57 °F (at 10:50 AM)
Minimum temperature yesterday: 50 °F (at 7:50 PM)
Average temperature yesterday: 53 °F

Past Weeks' High & Low Weather Summary

 TemperatureHumidityPressure
High68 °F (May 25, 3:50 PM)94% (May 21, 6:50 AM)30.21 "Hg (May 21, 6:50 AM)
Low36 °F (May 15, 4:50 AM)24% (May 25, 3:50 PM)29.53 "Hg (May 13, 7:50 AM)
Average51 °F71%29.82 "Hg
* Reported May 13 7:50 AM — May 28 7:50 AM, Tartu, Weather by CustomWeather, © 2015

Note: Actual official high and low records may vary slightly from our data, if they occured in-between our weather recording intervals... More about our weather records

Advertising

Tartu weather history for previous 24 hours

 ConditionsComfort  
Time TempWeatherWind HumidityBarometerVisibility
7:50 AM
Thu, May 28
50 °FPassing clouds.12 mph82%29.74 "HgN/A
6:50 AM46 °FPartly sunny.8 mph87%29.74 "HgN/A
5:50 AM46 °FPartly sunny.9 mph87%29.74 "HgN/A
4:50 AM46 °FOvercast.9 mph87%29.74 "HgN/A
3:50 AM48 °FPassing clouds.8 mph87%29.74 "HgN/A
2:50 AM48 °FMostly cloudy.7 mph94%29.74 "HgN/A
1:50 AM50 °FMostly cloudy.7 mph94%29.74 "HgN/A
12:50 AM50 °FMostly cloudy.3 mph88%29.74 "HgN/A
11:50 PM
Wed, May 27
50 °FLight rain. Mostly cloudy.5 mph88%29.77 "HgN/A
10:50 PM50 °FDrizzle. Broken clouds.2 mph88%29.77 "HgN/A
9:50 PM50 °FLight rain. Mostly cloudy.1 mph88%29.74 "HgN/A
8:50 PM50 °FRain. Overcast.3 mph88%29.77 "HgN/A
7:50 PM50 °FLight rain. Mostly cloudy.6 mph88%29.74 "HgN/A
6:50 PM52 °FLight rain. Overcast.2 mph77%29.77 "HgN/A
5:50 PM54 °FLight rain. Clear.3 mph67%29.77 "HgN/A
4:50 PM52 °FScattered clouds.5 mph77%29.77 "HgN/A
3:50 PM52 °FLight rain. Passing clouds.7 mph82%29.80 "HgN/A
2:50 PM54 °FLight rain. Clear.9 mph77%29.80 "HgN/A
1:50 PM54 °FLight rain. Scattered clouds.7 mph77%29.80 "HgN/A
12:50 PM54 °FLight rain. Partly sunny.7 mph77%29.77 "HgN/A
11:50 AM57 °FLight rain. Scattered clouds.6 mph67%29.77 "HgN/A
10:50 AM57 °FBroken clouds.6 mph77%29.77 "HgN/A
9:50 AM54 °FMostly cloudy.5 mph88%29.77 "HgN/A
Weather by CustomWeather, © 2015

See weather overviewHow to use our weather pages